Location: ????????
(54.8751°N, 38.5756°E)
Time: 19:11:32
(UTC+00:00)

Cosmos 2278 Rocket - Pass Details

Date: 14 April 2024
Orbit: 839 x 846 km, 71.0° (Epoch: 26 May)

Event Time Altitude Azimuth Distance (km) Brightness Sun altitude
Rises 00:10:34 0° 325° (NW) 3,420 5.5 -17.0°
Reaches altitude 10° 00:13:02 10° 323° (NW) 2,482 4.8 -16.7°
Maximum altitude 00:18:42 68° 242° (WSW) 912 2.1 -16.2°
Drops below altitude 10° 00:24:18 10° 161° (SSE) 2,465 4.4 -15.6°
Sets 00:26:45 0° 159° (SSE) 3,396 5.1 -15.3°
